Location: Breitenfeld
(46.8500°N, 15.6333°E)
Time: 18:54:10
(UTC+00:00)

Landsat 7 - Pass Details

Date: 09 April 2020
Orbit: 701 x 703 km, 98.1° (Epoch: 25 May)

Event Time Altitude Azimuth Distance (km) Brightness Sun altitude
Exits shadow 19:46:16 46° 113° (ESE) 939 4.0 -20.5°
Maximum altitude 19:47:12 55° 71° (ENE) 847 4.0 -20.7°
Drops below altitude 10° 19:51:52 10° 355° (N) 2,182 6.9 -21.3°
Sets 19:54:10 0° 351° (N) 3,104 7.9 -21.6°
